Location: Gro�bocka
(50.8204°N, 11.9702°E)
Time: 22:35:48
(UTC+00:00)

X-37B - Pass Details

Date: 25 June 2021
Orbit: 383 x 392 km, 45.0° (Epoch: 01 July)

Event Time Altitude Azimuth Distance (km) Brightness Sun altitude
Rises 20:10:47 0° 227° (SW) 2,251 4.4 -5.5°
Reaches altitude 10° 20:13:14 10° 208° (SSW) 1,399 3.2 -5.7°
Maximum altitude 20:15:31 19° 162° (SSE) 999 2.1 -6.0°
Drops below altitude 10° 20:17:49 10° 115° (ESE) 1,402 2.8 -6.2°
Enters shadow 20:19:28 - 100° (E) 1,962 3.7 -6.4°
